Terminal Aerodrome Forecast
Issued by NWS Des Moines, IA

Home | Current Version | Previous Version | Text Only | Print | Product List | Glossary On
Versions: 1 2 3 4 5 6 7 8 9 10 11 12 13 14 15 16 17 18 19 20 21 22 23 24 25 26 27 28 29 30 31 32 33 34 35
000
FTUS43 KDMX 031131
TAFALO
TAF
KALO 031131Z 0312/0412 15012KT 2SM -FZDZ SCT005 OVC010
     FM031300 15012KT 6SM BR SCT010 BKN015
     FM031700 29017G24KT 5SM -SN SCT008 OVC013
     FM032000 32020G30KT 4SM BLSN OVC025
     FM040200 30016G25KT P6SM BKN080=

USA.gov is the U.S. government's official web portal to all federal, state and local government web resources and services.